DELTA 1 DEB, 12530

Orbit data source: Space-Track

DELTA 1 DEB, 12530 is space debris in SSO originally from a launch on Thu, 29 Jul 1976 UTC launched from the Air Force Western Test Range (AFWTR). Debris objects in space refer to the collection of defunct objects orbiting the Earth. Examples of debris include non-operational satellites, rocket bodies, and fragments generated from explosions, collisions, or faulty payload assembly.

Loading next visibility...
Identifier
12530, 1976-077DK
Orbit
SSO
Country
Flag of USUS
Related business
Manufacturer
Unknown
Mission
Spacecraft
Bus & Motor
Unknown
Mass
Unknown
Launch date (UTC)
1976-07-29 (49 years ago)
Launch vehicle
Unknown
Launch site
Air Force Western Test Range (AFWTR)
Object type
Payload
Rocket body
Debris
Shape & HBR
Unknown shape, 0.4 m
Radar Cross Section
Medium (>0.1 m² and <1 m²)

Expand to show TLE details & history
Last TLE update: 11 hours ago

TLE from 11 hours ago
0 DELTA 1 DEB
1 12530U 76077DK  25303.23133397 -.00000016  00000-0  25938-3 0  9990
2 12530 102.5420 285.7743 0126873   5.2756   9.3710 12.27050393 54882
Epoch: 2025-10-30T05:33Z
TLE epoch observation values (Epoch: 2025-10-30T05:33:07.255Z)
Latitude
14.5014°
Longitude
160.41868°
Altitude
1,464.412 km
Speed
7.176 km/s
True Right ascension
18h 49m 58s
True Declination
14° 25' 33"
Sunlit
Object was in daylight at epoch
Visualization orbit readout
Latitude
Unknown
Longitude
Unknown
Altitude
Unknown
Speed
Unknown
Apparent Right ascension
Unknown
Apparent Declination
Unknown
Sunlit
N/A
Visualization observer readout
Local Sidereal Time
12:04:57
Azimuth
Unknown
Elevation
Unknown
Doppler factor
Unknown
Orbital elements
Apogee altitude
1,660.312 km
Perigee altitude
1,458.895 km
Semi-major axis
7,937.741 km
Eccentricity
0.01269
Inclination
102.542°
RAAN
285.7743°
Arg. of periapsis
5.2756°
True anomaly
9.61149°
Mean anomaly
9.371°
Eccentric anomaly
9.49086°
Mean motion
3.06901 °/min
Orbital period
117.3 mins
BSTAR
0.00025938
Loading maneuver chart data...
Computing Atmospheric mass density...
Loading historical data...
Loading historical data...
Loading historical data...
Loading historical data...
Loading historical data...
Loading historical data...
Loading historical data...

Documentation

Showing up to 5 results
|